カタログに戻る

STARLINK-5934

運用中通信VLEO
NORAD 56017·PAYLOAD·🇺🇸 United States

打ち上げ Mar 24, 2023 から Cape Canaveral Space Force Station

Loading…

次のパス (今後24時間)

TLE

最新Source: CelesTrak SupGP

元期: Sep 14, 2026, 20:45 UTC

1 56017C 23042AH  26257.86506944  .00055200  00000+0  19994-2 0  2576
2 56017  43.0028  56.9780 0002026 271.6726 176.9215 15.27548645    13

AllMySatでSTARLINK-5934をリアルタイム追跡

Download on the App Store